Home   Weather   Krems   Past weeks

Flag for Austria Past Weather in Krems, Lower Austria, Austria — Yesterday and Last 2 Weeks

Now
48 °F

Broken clouds.


Feels Like: 44 °F
Forecast: 33 / 52 °F
Wind: 9 mph from Southwest

Location: Tulln Airport

Current Time: Feb 26, 2017 at 1:45:44 pm

Latest Report: Feb 26, 2017 at 12:50 pm


Visibility: 40 mi

Pressure: 30.07 "Hg

Humidity: 46%

Dew Point: 28 °F

Location of KremsLocation

Past Weather in Krems — Graph

°F

Krems Temperature Yesterday

Maximum temperature yesterday: 48 °F (at 1:50 pm)
Minimum temperature yesterday: 32 °F (at 4:50 am)
Average temperature yesterday: 40 °F

High & Low Weather Summary for the Past Weeks

 TemperatureHumidityPressure
High64 °F (Feb 23, 1:50 pm)100% (Feb 15, 5:50 am)30.69 "Hg (Feb 15, 5:50 am)
Low25 °F (Feb 15, 4:50 am)34% (Feb 23, 1:50 pm)29.47 "Hg (Feb 23, 6:50 pm)
Average41 °F75%30.20 "Hg
* Reported Feb 11 11:50 am — Feb 26 11:50 am, Krems, Weather by CustomWeather, © 2017

Note: Actual official high and low records may vary slightly from our data, if they occured in-between our weather recording intervals... More about our weather records

Advertising

Krems Weather History for the Previous 24 Hours

Scroll right to see more
 ConditionsComfort  
Time TempWeatherWind HumidityBarometerVisibility
11:50 am
Sun, Feb 26
46 °FBroken clouds.7 mph50%30.07 "Hg40 mi
10:50 am43 °FBroken clouds.3 mph57%30.09 "Hg37 mi
9:50 am39 °FPartly sunny.6 mph65%30.09 "Hg37 mi
8:50 am36 °FPartly sunny.5 mph75%30.09 "Hg37 mi
7:50 am32 °FBroken clouds.6 mph87%30.07 "Hg37 mi
6:50 am30 °FPartly sunny.3 mph86%30.07 "Hg37 mi
5:50 am30 °FPassing clouds.2 mph86%30.07 "Hg16 mi
4:50 am28 °FPassing clouds.2 mph86%30.07 "Hg16 mi
9:50 pm
Sat, Feb 25
43 °FClear.8 mph46%30.21 "Hg16 mi
8:50 pm36 °FClear.2 mph70%30.21 "Hg16 mi
7:50 pm36 °FPassing clouds.5 mph70%30.21 "Hg16 mi
6:50 pm39 °FPassing clouds.1 mph61%30.21 "Hg16 mi
5:50 pm41 °FPassing clouds.6 mph53%30.18 "Hg37 mi
4:50 pm46 °FPartly sunny.13 mph46%30.18 "Hg37 mi
3:50 pm48 °FPartly sunny.18 mph43%30.18 "Hg31 mi
2:50 pm48 °FPartly sunny.17 mph43%30.21 "Hg31 mi
1:50 pm48 °FPartly sunny.9 mph40%30.21 "Hg31 mi
Weather by CustomWeather, © 2017

See weather overviewHow to use our weather pages

LIVE ANNULAR SOLAR ECLIPSE – Watch the eclipse as it happens